EW2108 Weather Reports


time (UTC)temp
C
wind
direction
speed
KPH
gust
KPH
rain 1hr
cm
rain 24hr
cm
rain mn
cm
humidity
%
barometer
mb
20260504223009 17 198 1.6 6.4 0.00 0.33 0.13 70 1019.3
20260504221507 16 196 1.6 8.0 0.00 0.33 0.13 73 1019.0
20260504220101 16 196 1.6 6.4 0.00 0.33 0.13 76 1018.9
20260504214614 16 196 1.6 8.0 0.00 0.33 0.13 78 1018.9
20260504213059 16 196 1.6 8.0 0.00 0.33 0.13 78 1018.6
20260504211554 16 193 1.6 14.5 0.00 0.33 0.13 79 1018.3
20260504210048 16 205 1.6 8.0 0.00 0.33 0.13 81 1017.9
20260504204545 15 215 3.2 8.0 0.00 0.33 0.13 84 1017.6
20260504203042 15 248 0.0 4.8 0.00 0.33 0.13 86 1017.6
20260504201548 16 248 0.0 11.3 0.00 0.33 0.13 89 1017.2
20260504200037 16 270 0.0 4.8 0.00 0.33 0.13 91 1017.1
20260504194533 16 273 0.0 3.2 0.00 0.33 0.13 92 1017.0
20260504193118 16 273 0.0 4.8 0.00 0.33 0.13 93 1016.7
20260504191542 17 279 0.0 4.8 0.00 0.33 0.13 94 1016.6
20260504190036 17 288 0.0 3.2 0.00 0.33 0.13 94 1016.5
20260504190006 17 288 0.0 1.6 0.00 0.33 0.13 94 1016.5
20260504184542 17 288 0.0 0.0 0.00 0.33 0.13 94 1016.5
20260504183032 17 288 0.0 0.0 0.00 0.33 0.13 94 1016.2
20260504181535 17 288 0.0 0.0 0.03 0.33 0.13 94 1016.5
20260504180030 17 288 0.0 1.6 0.03 0.33 0.13 94 1016.3
20260504174528 17 288 0.0 3.2 0.03 0.33 0.13 93 1016.3
20260504173031 17 292 0.0 0.0 0.03 0.33 0.13 93 1015.7
20260504171520 17 292 0.0 0.0 0.00 0.33 0.10 93 1016.0
20260504081558 21 294 0.0 4.8 0.00 0.00 0.00 79 1015.2
20260504044546 23 323 0.0 0.0 0.00 0.00 0.00 74 1014.9
20260504044513 23 322 0.0 0.0 0.00 0.00 0.00 74 1014.8
20260504043042 23 322 0.0 1.6 0.00 0.00 0.00 73 1014.8
20260504041536 24 323 0.0 1.6 0.00 0.00 0.00 71 1014.9
20260504040038 23 322 0.0 0.0 0.00 0.00 0.00 67 1015.1
20260504034518 23 323 0.0 0.0 0.00 0.00 0.00 69 1015.4
20260504033020 23 323 0.0 0.0 0.00 0.00 0.00 69 1015.2
20260504031509 23 323 0.0 0.0 0.00 0.00 0.00 67 1015.7
20260504030105 24 323 0.0 3.2 0.00 0.00 0.00 65 1016.0
20260504024506 25 322 0.0 0.0 0.00 0.00 0.00 64 1016.3
20260504023100 24 322 0.0 1.6 0.00 0.00 0.00 64 1016.5
20260504021558 23 323 0.0 0.0 0.00 0.00 0.00 65 1016.6
20260504020057 23 323 0.0 0.0 0.00 0.00 0.00 67 1017.0
20260504014558 23 300 0.0 1.6 0.00 0.00 0.00 69 1017.2
20260504013106 23 300 0.0 3.2 0.00 0.00 0.00 73 1017.4
20260504011554 23 300 0.0 3.2 0.00 0.00 0.00 72 1017.5
20260504010056 23 287 0.0 4.8 0.00 0.00 0.00 70 1017.5
20260504004603 23 287 1.6 4.8 0.00 0.00 0.00 69 1017.6
20260504003049 23 320 1.6 3.2 0.00 0.00 0.00 72 1017.6
20260504001549 23 320 1.6 6.4 0.00 0.00 0.00 72 1017.7
20260504000050 23 321 1.6 4.8 0.00 0.00 0.00 71 1017.7
20260503234544 22 319 0.0 4.8 0.00 0.00 0.00 74 1017.8
20260503233040 22 319 1.6 4.8 0.00 0.00 0.00 75 1017.8
20260503231540 21 319 0.0 6.4 0.00 0.00 0.00 77 1017.8
20260503230036 21 332 1.6 6.4 0.00 0.00 0.00 79 1017.9
20260503224534 21 345 0.0 8.0 0.00 0.00 0.00 79 1017.7